Location: ??
(35.5672°N, 139.6509°E)
Time: 11:19:37
(UTC+00:00)

Cosmos 1980 Rocket - Pass Details

Date: 03 August 2024
Orbit: 830 x 848 km, 71.0° (Epoch: 08 September)

Event Time Altitude Azimuth Distance (km) Brightness Sun altitude
Exits shadow 15:43:28 24° 323° (NW) 1,666 4.0 -35.5°
Drops below altitude 10° 15:46:52 10° 358° (N) 2,469 5.3 -35.3°
Sets 15:49:42 0° 10° (N) 3,405 6.4 -35.2°
